Location: Hamburg
(53.5554°N, 9.9941°E)
Time: 04:00:04
(UTC+02:00)

ISS - Pass Details

Date: 10 May 2021
Orbit: 417 x 422 km, 51.6° (Epoch: 15 June)

Event Time Altitude Azimuth Distance (km) Brightness Sun altitude
Exits shadow 02:49:05 38° 230° (SW) 660 -3.2 -16.1°
Maximum altitude 02:50:06 58° 171° (S) 499 -3.7 -16.0°
Drops below altitude 10° 02:53:26 10° 92° (E) 1,511 -0.7 -15.8°
Sets 02:55:33 0° 88° (E) 2,377 0.4 -15.7°
